Temp
64 65 65 65 65 65 65 65 65 64 64 65 64 64 64 64 64 64 60 68 68 70 68 68 68 68 68 63 65 63 49 46 52 54 57 63 62 64 68 64 65 67 64 65 67
64 64 64 65 64 64 64 64 64 64 64 64 64 64 64 63 60 58 69 71 70 69 67 64 62 65 59 60 60 55 46 51 59 59 60 63 63 64 62 61 61 62 64 66 65
63 63 64 64 64 64 64 64 64 63 63 63 64 63 63 62 55 59 68 69 70 70 67 66 65 63 55 58 58 56 49 56 61 63 64 62 62 66 63 56 64 61 61 62 61
63 63 63 63 63 64 64 64 63 63 63 63 63 63 62 59 44 63 67 68 68 68 65 64 60 54 53 52 59 52 59 60 62 62 61 58 63 61 62 64 69 66 66 63 61
61 61 62 62 62 63 63 64 63 63 62 63 63 62 58 50 53 67 66 67 66 65 61 60 57 55 50 53 56 53 56 61 61 61 60 62 57 57 58 65 67 68 67 63 62
61 60 61 61 62 62 63 63 63 63 62 63 63 62 53 43 66 68 68 66 65 63 61 61 60 61 55 54 51 56 56 57 59 59 61 58 56 58 60 63 65 66 65 63 64
60 60 60 60 61 62 62 63 63 62 62 63 63 60 52 49 65 66 67 64 66 64 60 64 64 58 57 52 58 55 50 53 55 57 57 58 51 53 60 62 61 63 64 65 66
59 59 59 60 60 61 62 62 62 62 62 63 62 56 47 63 64 65 65 63 66 66 64 65 65 59 55 57 55 49 48 40 51 55 57 56 43 56 60 58 59 59 60 63 65
58 58 59 59 59 60 61 61 61 62 62 62 54 49 46 63 57 62 63 60 62 63 63 68 63 55 54 46 41 43 35 38 45 56 54 51 44 54 60 57 56 56 58 61 64
57 57 58 58 59 59 60 61 61 61 61 61 58 47 49 50 57 60 62 61 58 57 56 55 54 45 44 41 33 35 35 40 40 50 50 47 47 51 57 57 54 54 57 58 60
56 56 57 57 58 59 58 55 50 48 51 46 47 46 52 57 60 56 59 57 56 51 42 48 42 40 43 47 45 44 41 39 45 52 48 45 45 49 53 53 52 54 54 56 61
56 56 57 57 57 58 55 49 54 53 44 52 52 51 56 57 49 53 59 48 51 44 45 41 39 45 49 48 47 44 41 39 46 50 47 44 44 48 52 53 56 56 54 57 55
56 56 56 57 56 52 50 51 58 56 43 45 50 48 52 54 47 48 54 49 45 41 42 37 43 50 48 46 44 43 41 41 41 45 45 42 39 43 49 53 57 59 59 59 59
56 56 57 57 49 49 47 55 57 53 36 38 42 48 52 54 45 55 56 50 45 40 41 40 47 46 45 44 45 39 47 47 44 38 32 42 26 38 46 49 53 54 56 58 58
56 55 56 56 45 44 51 56 54 48 24 40 43 55 53 47 47 47 58 51 41 41 41 38 41 42 41 44 48 42 49 46 43 37 34 33 29 34 42 44 48 52 53 55 58
56 55 55 51 48 50 51 52 50 32 23 34 42 41 42 45 48 48 49 51 51 44 44 41 47 47 45 48 48 49 44 43 41 36 24 33 32 29 39 46 47 52 54 56 56
55 55 53 50 42 52 49 43 31 25 36 31 35 41 40 39 43 44 40 39 36 32 31 34 40 45 49 43 45 44 38 22 25 25 22 35 32 35 45 50 51 50 54 54 56
55 55 53 51 48 49 44 32 24 33 32 37 37 38 35 41 41 41 38 36 42 38 35 31 28 40 46 45 41 41 40 26 17 21 24 34 28 37 49 54 53 54 55 56 54
54 48 45 47 49 47 35 23 25 31 38 34 38 34 34 39 39 37 37 36 40 42 33 32 32 43 44 47 48 39 36 42 29 21 22 29 35 44 49 50 51 52 52 50 52
46 43 43 48 48 41 30 26 28 33 39 38 30 34 31 33 34 34 34 41 40 46 43 39 29 39 42 46 45 44 46 34 27 13 15 25 28 35 41 47 49 51 49 50 52
43 36 44 49 44 34 23 24 29 36 34 32 36 36 36 33 35 33 34 40 45 43 46 40 34 29 40 37 39 39 38 37 36 31 25 22 28 41 48 52 50 48 50 50 51
40 30 44 46 31 30 26 27 36 34 39 33 32 35 36 38 34 34 36 41 48 47 39 41 33 29 34 38 46 46 41 41 31 27 29 29 29 45 47 46 49 49 50 50 51
33 33 44 43 24 25 22 23 29 30 35 32 32 32 38 38 33 36 39 46 48 45 42 44 27 27 28 35 37 37 40 43 40 34 29 24 33 49 51 48 49 47 48 50 49
32 26 34 36 35 28 23 21 28 35 36 38 34 37 33 34 40 36 38 43 46 48 49 49 35 33 29 34 36 32 38 40 40 29 32 32 39 43 44 44 45 47 48 48 48
32 27 26 26 26 29 28 24 23 24 34 37 30 32 34 31 34 36 39 42 45 48 47 45 33 34 38 36 36 37 36 38 36 38 32 37 37 43 46 46 48 49 49 48 48
29 28 25 22 31 27 29 27 27 27 31 30 31 37 36 30 31 34 39 40 39 44 44 46 35 32 26 35 34 31 36 37 39 39 39 40 38 50 51 49 46 46 48 48 47
34 35 32 29 27 27 27 28 29 33 34 38 36 35 35 37 38 41 47 48 46 43 41 41 37 32 28 30 30 23 31 35 37 41 41 34 42 50 44 46 46 46 47 47 45
MSLP
1017.74 1017.94 1018.22 1018.57 1018.91 1019.12 1019.34 1019.58 1019.79 1019.99 1020.23 1020.40 1020.40 1020.61 1020.66 1020.57 1020.32 1020.07 1019.54 1018.67 1018.60 1018.50 1018.26 1018.33 1017.93 1017.68 1017.63 1017.72 1017.42 1017.71 1018.83 1018.66 1017.74 1017.00 1016.39 1015.67 1015.58 1015.59 1015.78 1016.21 1016.54 1017.13 1017.86 1018.31 1019.11
1017.29 1017.59 1017.84 1018.08 1018.45 1018.81 1019.08 1019.34 1019.56 1019.81 1020.11 1020.30 1020.35 1020.45 1020.50 1020.55 1020.37 1019.82 1018.90 1018.37 1018.36 1018.33 1018.54 1018.59 1018.36 1018.08 1018.17 1018.01 1017.88 1018.25 1019.00 1018.36 1017.19 1016.77 1016.41 1015.90 1015.72 1015.77 1016.02 1016.49 1017.19 1018.00 1018.54 1018.99 1019.34
1016.84 1017.09 1017.39 1017.72 1017.97 1018.45 1018.75 1018.99 1019.27 1019.62 1019.90 1020.06 1020.15 1020.27 1020.41 1020.28 1020.19 1018.82 1018.43 1018.34 1018.20 1018.25 1018.82 1018.70 1018.48 1018.46 1018.54 1018.28 1018.21 1018.27 1018.53 1017.94 1017.16 1016.99 1016.83 1016.44 1016.19 1015.91 1016.06 1016.82 1016.97 1017.78 1018.50 1019.21 1019.67
1016.43 1016.65 1016.89 1017.27 1017.59 1017.91 1018.32 1018.68 1019.05 1019.40 1019.73 1019.91 1020.07 1020.30 1020.22 1020.40 1020.11 1018.69 1018.59 1018.39 1018.13 1018.27 1018.84 1018.72 1018.67 1018.72 1018.69 1018.62 1018.18 1018.38 1018.17 1017.97 1017.31 1017.19 1017.06 1017.19 1016.88 1016.41 1016.33 1016.45 1016.65 1017.02 1018.02 1018.85 1019.56
1015.98 1016.26 1016.53 1016.72 1017.15 1017.52 1017.84 1018.23 1018.70 1019.05 1019.35 1019.60 1019.84 1020.12 1020.52 1020.61 1019.15 1018.34 1018.34 1018.31 1018.28 1018.64 1018.93 1018.95 1018.91 1018.71 1018.68 1018.57 1018.64 1018.49 1018.42 1018.02 1017.70 1017.76 1017.24 1017.15 1017.34 1017.43 1017.11 1016.59 1016.53 1017.16 1017.83 1018.50 1018.92
1015.43 1015.77 1016.08 1016.39 1016.60 1017.00 1017.37 1017.80 1018.31 1018.72 1019.09 1019.40 1019.67 1020.17 1020.63 1019.88 1018.20 1018.29 1018.22 1018.20 1018.41 1018.66 1018.78 1018.83 1018.73 1018.50 1018.64 1018.60 1018.90 1018.60 1018.52 1018.34 1018.11 1018.04 1017.76 1017.62 1017.51 1017.64 1017.24 1016.66 1016.98 1017.19 1017.81 1017.89 1017.97
1014.93 1015.23 1015.52 1015.90 1016.23 1016.48 1016.92 1017.34 1017.84 1018.35 1018.79 1019.23 1019.53 1019.96 1019.94 1019.07 1018.15 1018.05 1018.06 1018.26 1018.24 1018.54 1018.73 1018.57 1018.44 1018.76 1018.64 1018.89 1018.68 1018.88 1019.24 1019.00 1018.53 1018.22 1018.03 1017.90 1018.24 1017.87 1017.67 1017.33 1017.58 1017.46 1017.32 1017.49 1017.23
1014.40 1014.73 1014.99 1015.38 1015.80 1016.12 1016.45 1016.92 1017.44 1018.02 1018.46 1018.89 1019.43 1019.90 1019.15 1018.11 1018.25 1018.16 1018.02 1018.26 1018.22 1018.29 1018.61 1018.46 1018.35 1018.73 1019.15 1019.07 1019.19 1019.62 1019.84 1019.85 1018.67 1018.34 1018.24 1018.50 1018.38 1018.07 1017.84 1018.03 1017.87 1017.73 1017.43 1017.02 1016.80
1013.84 1014.26 1014.57 1014.84 1015.33 1015.77 1016.10 1016.51 1017.06 1017.65 1018.28 1018.93 1019.73 1019.83 1018.77 1017.50 1018.07 1018.38 1018.41 1018.55 1018.50 1018.54 1018.52 1018.40 1018.41 1019.10 1019.52 1020.02 1020.51 1020.45 1020.32 1020.13 1019.59 1018.57 1018.50 1018.65 1018.55 1017.99 1017.71 1017.95 1017.99 1017.56 1017.30 1016.85 1016.23
1013.26 1013.72 1014.00 1014.48 1014.82 1015.36 1015.86 1016.27 1016.78 1017.38 1018.16 1018.91 1019.26 1020.05 1018.60 1017.61 1017.53 1017.69 1018.22 1018.54 1018.75 1018.77 1018.88 1018.91 1019.10 1019.79 1020.26 1020.52 1020.54 1020.39 1020.79 1020.35 1019.69 1018.61 1018.46 1018.74 1018.41 1018.15 1017.86 1017.63 1017.61 1017.36 1016.94 1016.65 1015.92
1012.58 1013.26 1013.64 1014.07 1014.49 1015.03 1015.91 1016.55 1016.85 1016.51 1016.75 1016.42 1016.95 1017.21 1016.33 1016.87 1017.24 1017.71 1018.05 1018.57 1018.87 1019.18 1019.42 1019.55 1019.76 1019.38 1019.71 1019.88 1019.90 1019.97 1020.14 1020.10 1019.41 1018.68 1018.73 1018.80 1018.91 1018.36 1018.09 1017.88 1017.42 1016.98 1016.39 1015.82 1015.32
1011.98 1012.66 1013.21 1013.76 1014.27 1014.73 1015.32 1014.83 1014.33 1014.85 1015.51 1015.95 1016.27 1016.78 1016.22 1016.31 1017.18 1017.56 1018.07 1018.83 1018.86 1019.18 1019.78 1020.42 1019.55 1019.87 1020.02 1020.30 1020.31 1020.12 1020.17 1019.86 1019.17 1018.88 1019.08 1019.33 1019.19 1018.36 1017.83 1017.34 1016.68 1016.25 1015.81 1015.26 1015.37
1011.27 1011.99 1012.74 1013.31 1014.06 1014.71 1014.54 1014.17 1014.46 1014.57 1015.51 1015.47 1015.82 1016.17 1016.10 1016.49 1016.66 1017.03 1017.52 1018.30 1018.57 1019.26 1019.30 1019.38 1019.10 1019.45 1019.75 1019.75 1019.92 1019.84 1019.75 1019.76 1019.66 1019.30 1019.52 1019.69 1019.19 1018.17 1016.66 1016.16 1015.53 1015.21 1014.72 1014.65 1014.47
1010.37 1011.21 1012.04 1012.97 1014.50 1014.24 1014.00 1014.36 1014.88 1015.65 1015.47 1014.83 1014.75 1014.83 1015.67 1015.89 1016.42 1016.40 1017.06 1017.79 1018.33 1018.84 1019.83 1019.81 1018.90 1018.99 1019.05 1018.92 1019.31 1019.33 1019.16 1019.56 1020.07 1020.47 1020.89 1020.87 1020.22 1018.50 1016.87 1015.85 1015.13 1014.14 1014.22 1013.97 1013.78
1009.39 1010.43 1011.38 1012.13 1012.90 1013.57 1013.26 1013.90 1014.84 1015.66 1013.57 1013.12 1013.63 1014.22 1014.47 1015.16 1015.17 1015.76 1016.39 1017.50 1017.60 1017.95 1018.76 1017.95 1018.09 1018.38 1018.40 1018.09 1018.49 1018.74 1018.96 1019.70 1020.37 1021.12 1021.67 1021.60 1021.70 1018.30 1016.78 1015.92 1014.39 1013.72 1013.58 1013.24 1012.95
1008.65 1009.66 1010.65 1011.67 1012.37 1012.69 1013.44 1013.80 1014.83 1013.65 1011.31 1012.23 1012.24 1012.73 1014.00 1014.39 1014.64 1015.43 1016.17 1017.15 1017.43 1017.96 1018.13 1017.96 1017.47 1017.53 1017.17 1017.78 1018.13 1018.48 1019.52 1020.35 1021.12 1022.18 1022.31 1021.62 1021.36 1017.92 1016.45 1014.56 1013.84 1013.25 1012.93 1012.79 1012.81
1007.92 1008.99 1010.04 1010.92 1011.39 1012.74 1013.86 1014.24 1013.12 1009.43 1011.30 1011.71 1011.88 1011.89 1012.31 1012.94 1014.23 1014.44 1015.63 1016.52 1016.40 1017.64 1017.72 1018.12 1017.59 1017.05 1016.63 1017.43 1017.91 1018.37 1019.71 1021.40 1022.63 1023.05 1021.91 1020.67 1020.71 1016.63 1015.16 1013.74 1013.26 1012.97 1012.86 1012.77 1012.81
1007.11 1008.34 1008.98 1009.98 1011.25 1012.39 1013.81 1014.16 1011.21 1009.97 1010.86 1010.79 1011.33 1011.96 1011.91 1012.73 1013.74 1014.18 1014.99 1015.67 1015.85 1015.62 1016.40 1017.17 1017.57 1016.38 1015.90 1015.73 1016.27 1017.46 1018.52 1019.88 1021.63 1022.47 1021.62 1020.59 1018.77 1015.51 1013.65 1012.68 1012.64 1012.18 1012.45 1012.43 1012.87
1006.56 1007.98 1008.84 1009.73 1010.73 1012.15 1013.47 1012.05 1009.79 1009.40 1010.06 1010.83 1011.06 1011.11 1011.59 1012.03 1012.54 1013.69 1013.77 1013.72 1013.53 1014.09 1014.68 1015.80 1015.85 1014.93 1015.60 1015.38 1015.83 1017.07 1017.73 1018.97 1020.52 1022.12 1021.76 1019.66 1017.17 1014.98 1013.31 1012.86 1012.71 1012.65 1012.61 1013.03 1013.24
1005.70 1007.35 1008.13 1009.31 1010.47 1012.00 1012.38 1011.32 1011.20 1011.37 1009.79 1010.31 1010.33 1009.82 1009.94 1010.63 1011.25 1011.93 1012.53 1012.46 1012.79 1012.98 1013.42 1014.15 1015.51 1015.21 1015.67 1015.61 1015.60 1015.59 1017.33 1018.76 1019.92 1021.55 1021.24 1018.91 1017.24 1014.51 1013.16 1012.82 1012.65 1012.85 1013.05 1013.24 1013.33
1004.92 1006.51 1006.94 1008.71 1010.47 1011.85 1011.16 1011.28 1011.54 1011.06 1011.38 1010.72 1009.84 1009.39 1009.63 1009.91 1010.21 1010.55 1010.58 1010.97 1012.05 1012.63 1013.30 1013.83 1014.52 1015.73 1015.57 1014.77 1014.38 1015.62 1016.38 1017.47 1018.47 1019.25 1018.86 1018.19 1015.71 1013.14 1012.37 1011.83 1012.15 1012.51 1012.91 1013.01 1013.34
1003.50 1005.30 1006.31 1007.90 1009.71 1010.43 1010.39 1010.90 1010.75 1009.81 1010.67 1010.85 1010.69 1009.78 1008.83 1009.03 1009.49 1009.83 1009.37 1009.31 1010.05 1011.02 1012.11 1013.49 1014.34 1015.50 1014.72 1014.89 1014.80 1014.70 1014.66 1015.78 1016.92 1017.03 1017.62 1017.09 1014.17 1012.07 1012.32 1011.86 1011.58 1012.51 1012.90 1013.12 1013.33
1002.55 1004.64 1005.76 1006.39 1008.16 1009.25 1009.92 1009.92 1009.97 1010.19 1010.10 1010.15 1009.98 1009.77 1008.84 1008.05 1008.57 1008.53 1008.47 1008.18 1009.11 1009.85 1010.30 1011.99 1013.34 1015.01 1015.89 1015.99 1015.12 1014.47 1015.04 1015.44 1015.75 1016.39 1016.47 1016.40 1013.28 1011.76 1011.41 1012.06 1012.33 1012.75 1012.89 1012.95 1013.15
1002.10 1003.73 1004.82 1006.27 1006.42 1007.80 1009.13 1009.62 1009.78 1009.39 1008.94 1008.78 1008.79 1009.45 1009.24 1007.79 1007.27 1007.71 1007.72 1007.74 1008.06 1008.62 1009.63 1010.54 1011.55 1012.14 1011.77 1011.19 1012.91 1014.26 1014.17 1014.49 1015.04 1015.90 1014.36 1014.12 1012.02 1011.90 1011.70 1012.05 1012.38 1012.70 1012.84 1013.08 1013.38
1000.50 1002.30 1003.12 1004.18 1005.65 1006.15 1007.83 1008.27 1008.58 1008.53 1008.40 1008.24 1008.05 1008.58 1007.97 1007.93 1006.77 1006.76 1007.12 1007.49 1007.94 1008.26 1009.36 1009.62 1010.59 1011.50 1011.60 1012.01 1012.54 1012.57 1013.28 1013.77 1014.33 1013.43 1014.04 1012.19 1012.74 1010.95 1011.64 1011.86 1011.65 1012.20 1012.27 1012.71 1013.01
999.29 1001.12 1002.63 1003.71 1004.82 1006.32 1007.17 1007.17 1007.31 1007.77 1007.30 1007.47 1007.41 1006.06 1006.45 1007.26 1008.10 1006.06 1005.40 1006.03 1005.86 1007.48 1008.25 1009.01 1009.72 1011.00 1012.14 1012.41 1012.54 1012.78 1012.72 1012.94 1013.00 1012.48 1013.37 1012.16 1011.81 1009.10 1011.12 1011.45 1011.64 1011.83 1012.35 1012.82 1013.17
998.42 999.79 1001.11 1002.93 1004.74 1005.81 1005.51 1004.89 1004.96 1006.32 1006.54 1006.09 1005.92 1005.73 1005.22 1005.00 1006.51 1006.89 1004.07 1003.39 1003.57 1005.10 1006.14 1007.96 1008.44 1010.59 1011.61 1012.19 1012.96 1012.95 1011.46 1011.16 1011.45 1011.18 1010.97 1011.29 1008.93 1007.99 1010.31 1010.72 1010.86 1011.77 1012.25 1012.74 1013.55
Wind_Speed
18 18 17 16 14 13 11 10 7 6 6 5 4 0 3 6 9 4 4 3 3 5 7 7 5 5 3 2 0 3 4 3 5 1 4 3 4 0 4 4 3 3 4 7 14
14 18 18 17 16 14 13 11 9 7 7 6 4 1 3 5 3 7 9 3 4 6 3 5 5 4 2 3 1 5 4 7 5 2 5 5 4 7 4 2 3 6 7 10 9
13 14 16 18 18 16 14 12 10 7 7 6 4 1 2 4 3 3 4 2 5 5 2 4 4 2 3 2 3 5 6 4 5 4 6 1 4 5 7 0 6 9 13 10 7
14 14 15 16 17 18 16 14 12 10 8 7 6 4 2 1 5 3 2 2 3 3 3 4 2 1 3 4 5 2 6 4 7 2 3 2 7 4 5 8 4 6 13 10 9
13 14 14 15 17 19 18 16 13 11 10 8 7 6 2 3 7 3 1 3 3 3 4 4 4 3 2 3 3 4 5 4 6 2 2 3 3 3 6 8 5 7 13 12 11
15 14 13 14 15 18 19 18 16 12 11 11 11 8 1 4 3 6 3 3 1 5 4 4 4 4 3 2 2 2 1 3 6 5 4 2 5 4 6 6 9 3 10 10 11
14 14 14 13 15 15 18 19 17 14 13 13 13 5 4 10 2 3 3 2 3 3 4 5 4 2 2 3 5 3 4 5 7 4 4 4 5 7 9 10 9 11 9 9 11
15 15 13 13 15 15 17 18 17 15 14 13 11 4 7 8 10 2 2 3 3 2 4 6 5 1 1 1 4 4 3 1 5 5 6 8 8 9 9 9 13 11 10 9 9
15 15 14 14 14 15 16 18 18 18 16 12 5 4 6 3 8 11 2 3 3 3 4 4 2 3 1 4 3 1 5 4 7 9 6 9 6 8 10 8 8 9 9 10 10
17 12 15 11 11 12 14 16 17 16 12 7 1 5 5 6 7 8 7 5 4 3 3 2 3 4 1 5 10 7 5 4 6 6 8 7 10 6 8 9 9 9 9 9 9
19 16 12 11 8 10 10 5 7 8 15 9 11 4 2 8 6 6 7 4 3 4 6 5 6 15 18 16 5 7 5 8 4 3 5 5 6 8 7 8 10 11 10 10 12
21 20 16 12 9 7 6 9 13 4 9 15 10 16 2 11 7 8 10 8 15 15 6 3 17 8 8 8 12 11 4 4 5 3 2 4 9 11 11 12 17 16 12 13 6
22 21 20 17 12 4 9 17 4 5 1 12 9 17 6 9 7 13 18 7 9 13 17 9 7 18 13 10 15 11 9 5 6 5 3 5 9 10 8 11 19 17 15 12 13
23 22 23 20 9 4 6 10 6 5 8 7 21 9 13 5 6 9 13 10 6 15 10 11 9 15 12 17 9 8 6 5 1 4 3 5 8 7 10 10 7 15 13 15 11
22 24 24 24 7 7 1 9 9 3 18 10 15 9 14 17 15 10 20 11 10 9 10 11 13 13 18 8 11 6 6 6 4 2 2 1 4 8 6 8 12 9 10 11 13
24 23 23 15 5 8 8 4 9 13 17 10 12 23 22 21 11 15 19 3 4 5 11 8 2 12 10 9 8 8 6 5 5 3 5 9 8 5 6 10 4 5 7 6 4
25 25 20 10 11 10 7 4 16 21 6 7 9 22 30 18 19 19 23 20 12 11 10 4 11 3 8 10 6 7 9 2 1 5 9 4 7 7 6 7 5 1 7 6 6
26 24 19 10 8 13 6 7 27 27 15 2 11 22 26 17 21 22 23 24 20 8 12 13 10 15 7 11 11 14 13 7 10 6 5 5 10 8 12 12 4 7 7 4 7
26 12 9 8 12 8 6 10 6 6 20 9 14 24 19 17 17 18 22 27 26 22 12 13 11 5 6 5 15 9 16 7 5 3 3 6 7 8 7 7 5 7 4 8 7
14 12 12 12 13 8 7 10 2 4 6 16 18 12 22 24 17 21 24 22 19 25 4 6 3 6 8 4 5 16 10 10 2 4 4 6 5 9 2 9 9 7 9 8 6
13 10 11 15 9 7 9 6 7 11 5 2 21 23 18 15 17 19 20 12 23 24 18 5 5 5 11 15 20 8 14 6 6 6 7 2 8 9 18 13 8 7 10 9 7
10 9 14 15 10 5 11 11 10 7 9 9 2 9 23 25 18 23 26 25 29 22 30 9 6 7 20 1 10 16 22 18 9 8 4 3 9 1 8 4 10 11 8 6 8
11 4 15 19 13 12 6 6 3 8 13 11 9 8 7 20 20 17 26 27 27 24 24 16 2 8 4 4 5 13 10 18 7 3 10 7 12 11 11 7 7 9 7 5 5
7 7 9 11 10 13 9 7 12 13 11 10 9 9 7 19 18 23 20 12 20 28 22 19 6 13 18 24 12 15 20 18 19 7 16 13 20 8 5 3 4 7 7 8 7
3 5 5 19 15 20 16 9 9 7 13 16 5 12 14 7 19 12 19 18 16 27 22 16 12 12 13 7 10 18 22 23 21 26 18 26 18 22 14 9 8 7 5 6 4
7 7 2 5 13 13 18 17 18 9 13 17 21 24 19 18 18 17 23 19 22 19 23 17 16 6 5 5 8 10 21 23 26 29 18 23 21 30 12 8 9 3 6 6 4
2 3 7 7 10 15 18 25 23 15 10 12 25 22 21 29 26 24 24 25 24 29 29 26 20 15 19 8 6 2 20 26 23 26 29 24 35 29 9 10 9 4 9 8 7
Wind_Direction
232 222 218 218 219 222 230 229 215 201 222 210 167 131 340 326 313 271 262 257 109 1 351 313 304 287 307 284 44 57 63 230 245 257 214 195 130 92 145 101 56 44 110 137 132
235 231 224 219 218 217 220 227 222 206 209 225 183 179 340 328 268 241 257 226 122 55 2 338 322 285 322 225 253 112 139 226 223 281 317 210 156 159 106 151 121 73 79 115 129
226 228 229 224 218 214 214 215 218 215 212 219 198 206 310 342 297 253 352 284 163 108 261 294 320 286 209 318 215 187 188 241 279 37 19 302 175 155 120 241 220 183 164 152 145
236 223 220 226 223 216 210 211 207 202 201 203 193 188 13 329 209 145 174 81 172 137 316 277 258 275 182 210 233 180 229 243 298 32 36 358 310 337 140 205 133 127 163 153 163
231 235 224 216 220 220 212 206 207 198 189 188 187 168 135 211 250 166 192 104 163 145 212 228 217 187 193 221 251 193 253 290 301 277 185 329 294 316 299 280 332 114 155 174 176
230 222 226 225 215 219 215 204 201 197 186 185 178 157 152 214 189 161 112 139 261 180 222 228 222 227 260 292 155 356 206 291 315 282 257 214 286 56 282 304 318 296 186 192 187
233 230 215 224 223 217 215 208 200 190 185 188 182 159 229 226 83 50 148 242 189 203 227 253 260 5 352 351 294 84 37 350 280 260 227 94 303 241 257 288 283 284 277 213 207
231 228 223 216 224 220 213 209 200 190 188 186 176 187 240 221 246 264 159 277 290 249 219 277 262 246 278 268 26 50 37 249 279 221 235 125 252 249 249 253 262 255 256 260 233
224 224 219 217 220 222 213 207 202 195 189 174 146 173 240 190 190 223 287 225 227 258 270 275 186 160 340 127 46 251 226 239 312 245 222 173 246 236 245 254 272 266 257 262 261
224 212 211 209 213 220 215 206 206 196 181 162 223 160 264 195 170 188 185 216 181 169 88 97 124 157 151 156 194 193 186 234 223 278 171 204 241 258 272 279 261 256 254 252 251
221 203 180 188 191 208 209 193 199 205 192 185 169 230 162 177 133 181 167 129 202 133 160 202 180 201 204 205 210 168 160 201 254 260 184 236 267 269 267 282 281 271 268 258 254
218 206 186 158 146 175 198 212 206 153 184 196 180 217 337 165 153 182 145 163 186 188 159 147 222 209 198 206 216 246 255 264 281 194 145 287 267 269 253 244 244 252 250 252 257
214 207 205 176 138 134 217 220 199 58 248 193 195 193 170 174 178 195 173 173 187 183 195 179 215 191 213 202 217 222 209 218 228 345 342 317 290 255 275 248 248 242 242 242 233
210 208 197 190 180 162 220 212 214 148 241 208 192 207 196 150 223 174 182 165 175 192 183 237 250 188 203 219 191 222 183 199 206 66 228 87 287 300 280 275 236 236 230 238 235
204 203 199 182 126 186 174 177 144 132 239 165 176 166 169 176 132 200 176 193 187 174 160 207 183 198 207 188 186 215 168 203 172 145 332 225 282 262 251 271 262 240 232 232 232
202 195 194 198 179 167 69 236 162 206 212 172 152 175 164 192 180 148 169 181 172 189 216 210 194 198 187 185 172 147 92 80 66 92 270 193 187 248 213 227 291 241 239 210 174
199 194 188 174 195 175 105 218 205 217 136 166 174 175 178 179 178 163 175 192 175 172 200 189 231 235 169 161 168 145 129 49 231 216 234 233 198 248 252 250 207 355 171 157 149
192 191 198 191 143 147 163 201 219 217 184 145 157 176 189 163 195 174 171 188 209 204 160 178 204 202 197 189 181 174 167 156 186 199 242 180 229 254 228 246 252 196 168 131 61
180 189 189 166 148 151 177 223 225 189 191 151 167 179 187 186 161 172 186 194 195 193 164 188 229 156 203 150 157 173 199 143 112 21 63 226 293 294 246 259 207 163 129 104 128
174 181 193 151 142 160 208 224 288 278 253 189 200 183 191 188 176 185 185 196 197 205 182 177 152 209 183 124 239 185 142 211 27 150 238 259 257 233 187 233 240 228 145 147 146
164 176 162 149 126 181 222 215 195 237 251 273 217 202 204 189 186 188 186 191 197 195 211 165 107 277 146 209 183 152 189 191 142 174 187 221 253 214 218 242 202 187 164 154 154
161 182 160 141 163 183 221 167 182 213 214 201 317 230 202 189 189 195 199 200 192 183 199 195 137 166 196 279 194 209 202 188 186 204 185 160 263 236 158 42 138 158 166 159 142
157 125 166 155 177 194 195 205 185 164 192 169 220 202 284 193 193 190 201 200 184 185 187 190 195 134 132 342 291 214 199 207 210 85 200 166 255 201 242 153 152 146 154 148 119
136 149 147 182 190 182 160 202 213 210 227 207 223 221 273 222 198 191 193 200 181 199 189 176 157 195 193 206 145 198 202 208 209 216 228 217 245 257 233 195 132 165 177 157 154
136 160 177 175 194 186 167 175 177 190 212 188 214 204 220 275 199 184 200 201 193 197 194 187 188 205 224 156 158 199 198 205 209 223 216 239 243 251 234 256 256 192 149 141 138
126 144 92 108 142 161 184 209 211 189 173 213 229 230 216 228 257 201 193 195 194 187 197 203 205 171 221 201 151 185 204 206 213 225 230 247 248 249 250 229 235 194 173 187 141
129 102 112 140 146 167 201 210 213 191 220 197 213 232 230 220 212 269 208 196 186 184 186 192 201 188 226 182 111 360 206 201 214 223 214 224 235 249 230 217 233 221 190 189 154